Kayseri, Turkey

12:16 AM +03 on October 19, 2017 (GMT +0300)
Erkilet Air Base

Weather History for LTAU - September, 2013

Change the Weather History Date:

Monday, September 23, 2013

  Actual Average Record
Temperature  
Mean Temperature 53 °F -  
Max Temperature 67 °F 68 °F 87 °F (2001)
Min Temperature 39 °F 40 °F 37 °F (1997)
Degree Days  
Heating Degree Days 12    
Growing Degree Days 3 (Base 50)    
Moisture  
Dew Point 36 °F    
Average Humidity 54    
Maximum Humidity 87    
Minimum Humidity 19    
Precipitation  
Precipitation 0.00 in - - ()
Sea Level Pressure  
Sea Level Pressure 29.96 in    
Wind  
Wind Speed 4 mph ()    
Max Wind Speed 10 mph    
Max Gust Speed -    
Visibility 6.7 miles    
Events      
Averages and records for this station are not official NWS values.
T = Trace of Precipitation, MM = Missing Value Source: Averaged Metar Reports

Daily Weather History Graph

Daily Weather History Graph

Search for Another Location

Airport or City:

Trip Planner

Search our weather history database for the weather conditions in past years. The results will help you decide how hot, cold, wet, or windy it might be!

Date:

Astronomy

Sep. 23, 2013 Rise Set
Actual Time 6:26 AM EEST 6:33 PM EEST
Civil Twilight 6:00 AM EEST 7:00 PM EEST
Nautical Twilight 5:29 AM EEST 7:31 PM EEST
Astronomical Twilight 4:57 AM EEST 8:02 PM EEST
Moon 8:53 PM EEST (9/23) 10:23 AM EEST (9/23)
Length of Visible Light 13h 00m
Length of Day
12h 07m
Waning Gibbous, 84% of the Moon is Illuminated
Sep 23
Waning Gibbous
Sep 27
Last Quarter
Oct 5
New
Oct 12
First Quarter
Oct 19
Full

Hourly Weather History & Observations

Time (EEST) Temp. Windchill Dew Point Humidity Pressure Visibility Wind Dir Wind Speed Gust Speed Precip Events Conditions
12:20 AM 50.0 °F - 41.0 °F 71% 29.98 in 6.2 mi NNE 4.6 mph - N/A   Scattered Clouds
12:50 AM 48.2 °F - 41.0 °F 76% 29.98 in 6.2 mi Calm Calm - N/A   Scattered Clouds
1:20 AM 50.0 °F - 41.0 °F 71% 29.98 in 6.2 mi ENE 4.6 mph - N/A   Mostly Cloudy
1:50 AM 50.0 °F - 41.0 °F 71% 29.98 in 6.2 mi East 4.6 mph - N/A   Mostly Cloudy
2:20 AM 50.0 °F - 41.0 °F 71% 29.98 in 6.2 mi East 2.3 mph - N/A   Mostly Cloudy
2:50 AM 50.0 °F - 41.0 °F 71% 29.98 in 6.2 mi NE 4.6 mph - N/A   Scattered Clouds
3:00 AM 50 °F - 40 °F 60%  in 12 mi NE 4.6 mph - -   Partly Cloudy
3:20 AM 50.0 °F - 41.0 °F 71% 29.98 in 6.2 mi NNE 4.6 mph - N/A   Scattered Clouds
3:50 AM 48.2 °F - 39.2 °F 71% 29.98 in 6.2 mi NNE 5.8 mph - N/A   Scattered Clouds
4:20 AM 46.4 °F 43.5 °F 39.2 °F 76% 29.98 in 6.2 mi NNE 5.8 mph - N/A   Scattered Clouds
4:50 AM 44.6 °F 43.1 °F 39.2 °F 81% 29.98 in 6.2 mi NNE 3.5 mph - N/A   Scattered Clouds
5:20 AM 44.6 °F - 39.2 °F 81% 29.98 in 6.2 mi Calm Calm - N/A   Scattered Clouds
5:50 AM 42.8 °F - 37.4 °F 81% 29.98 in 6.2 mi Calm Calm - N/A   Partly Cloudy
6:20 AM 42.8 °F - 37.4 °F 81% 29.98 in 6.2 mi Calm Calm - N/A   Partly Cloudy
6:50 AM 39.2 °F - 35.6 °F 87% 30.01 in 6.2 mi Calm Calm - N/A   Partly Cloudy
7:20 AM 46.4 °F - 39.2 °F 76% 30.01 in 6.2 mi Calm Calm - N/A   Partly Cloudy
7:50 AM 50.0 °F - 41.0 °F 71% 30.01 in 6.2 mi NNE 4.6 mph - N/A   Partly Cloudy
8:20 AM 51.8 °F - 41.0 °F 67% 30.01 in 6.2 mi NE 6.9 mph - N/A   Partly Cloudy
8:50 AM 53.6 °F - 41.0 °F 62% 30.01 in 6.2 mi NE 6.9 mph - N/A   Partly Cloudy
9:00 AM 53 °F - 41 °F 53%  in 12 mi NE 6.9 mph - -   Scattered Clouds
9:20 AM 55.4 °F - 41.0 °F 58% 30.01 in 6.2 mi NE 6.9 mph - N/A   Partly Cloudy
9:50 AM 57.2 °F - 39.2 °F 51% 30.01 in 6.2 mi ENE 6.9 mph - N/A   Partly Cloudy
10:20 AM 59.0 °F - 35.6 °F 42% 30.01 in 6.2 mi ENE 6.9 mph - N/A   Partly Cloudy
10:50 AM 59.0 °F - 37.4 °F 45% 30.01 in 6.2 mi Variable 2.3 mph - N/A   Partly Cloudy
11:20 AM 62.6 °F - 35.6 °F 37% 29.98 in 6.2 mi Variable 1.2 mph - N/A   Scattered Clouds
11:50 AM 60.8 °F - 35.6 °F 39% 29.98 in 6.2 mi Variable 2.3 mph - N/A   Scattered Clouds
12:20 PM 60.8 °F - 35.6 °F 39% 29.98 in 6.2 mi West 3.5 mph - N/A   Scattered Clouds
12:50 PM 62.6 °F - 35.6 °F 37% 29.98 in 6.2 mi ENE 4.6 mph - N/A   Scattered Clouds
1:20 PM 64.4 °F - 33.8 °F 32% 29.95 in 6.2 mi Variable 1.2 mph - N/A   Scattered Clouds
1:50 PM 66.2 °F - 33.8 °F 30% 29.95 in 6.2 mi Variable 2.3 mph - N/A   Scattered Clouds
2:20 PM 62.6 °F - 33.8 °F 34% 29.95 in 6.2 mi WSW 2.3 mph - N/A   Scattered Clouds
2:50 PM 64.4 °F - 32.0 °F 30% 29.92 in 6.2 mi Variable 1.2 mph - N/A   Scattered Clouds
3:00 PM 64 °F - 32 °F 19%  in 12 mi 1.2 mph - -   Partly Cloudy
3:20 PM 68.0 °F - 32.0 °F 26% 29.92 in 6.2 mi West 8.1 mph - N/A   Scattered Clouds
3:50 PM 66.2 °F - 32.0 °F 28% 29.92 in 6.2 mi NW 9.2 mph - N/A   Scattered Clouds
4:20 PM 66.2 °F - 32.0 °F 28% 29.92 in 6.2 mi North 4.6 mph - N/A   Scattered Clouds
4:50 PM 64.4 °F - 32.0 °F 30% 29.92 in 6.2 mi NW 6.9 mph - N/A   Scattered Clouds
5:20 PM 64.4 °F - 33.8 °F 32% 29.92 in 6.2 mi NW 9.2 mph - N/A   Scattered Clouds
5:50 PM 62.6 °F - 32.0 °F 32% 29.92 in 6.2 mi NNW 10.4 mph - N/A   Partly Cloudy
6:20 PM 60.8 °F - 33.8 °F 36% 29.92 in 6.2 mi NW 10.4 mph - N/A   Partly Cloudy
6:50 PM 59.0 °F - 33.8 °F 39% 29.92 in 6.2 mi NW 9.2 mph - N/A   Partly Cloudy
7:20 PM 57.2 °F - 33.8 °F 41% 29.92 in 6.2 mi NW 6.9 mph - N/A   Partly Cloudy
7:50 PM 55.4 °F - 33.8 °F 44% 29.92 in - Variable 1.2 mph - N/A   Clear
8:20 PM 50.0 °F - 33.8 °F 54% 29.92 in - Calm Calm - N/A   Clear
8:50 PM 50.0 °F - 35.6 °F 58% 29.95 in - SE 2.3 mph - N/A   Clear
9:00 PM 49 °F - 35 °F 47%  in 12 mi SE 2.3 mph - -  
9:20 PM 50.0 °F - 35.6 °F 58% 29.95 in - Variable 1.2 mph - N/A   Clear
9:50 PM 48.2 °F - 35.6 °F 62% 29.95 in - Calm Calm - N/A   Clear
10:20 PM 46.4 °F - 33.8 °F 62% 29.95 in - Variable 1.2 mph - N/A   Clear
10:50 PM 44.6 °F 43.1 °F 33.8 °F 66% 29.95 in - NNE 3.5 mph - N/A   Clear
11:20 PM 41.0 °F 38.0 °F 32.0 °F 70% 29.95 in - NNE 4.6 mph - N/A   Clear
11:50 PM 44.6 °F 42.2 °F 33.8 °F 66% 29.95 in - ENE 4.6 mph - N/A   Clear